Regional Weather Roundup
Issued by NWS

Home | Current Version | Previous Version | Text Only | Print | Product List | Glossary On
Versions: 1 2 3 4 5 6 7 8 9 10 11 12 13 14 15 16 17 18 19 20 21 22 23 24 25 26 27 28 29 30 31 32 33 34 35 36 37 38 39 40 41 42 43 44 45 46 47 48 49 50
000
ASUS43 KLSX 250707
RWRMO

WEATHER SUMMARY FOR MISSOURI
NATIONAL WEATHER SERVICE SPRINGFIELD MO
200 AM CDT MON MAY 25 2015

NOTE: "FAIR" INDICATES FEW OR NO CLOUDS BELOW 12,000 FEET WITH NO
       SIGNIFICANT WEATHER AND/OR OBSTRUCTIONS TO VISIBILITY.
       CURRENT SKY AND/OR WEATHER CONDITIONS ARE NOT AVAILABLE FOR
       CHILLICOTHE AND FARMINGTON.

MOZ001>031-035>038-043-044-053-054-250800-
...NORTHERN AND WESTERN MISSOURI...

CITY           SKY/WX    TMP DP  RH WIND       PRES   REMARKS
KANSAS CTY INT LGT RAIN  63  62  97 SW7       29.84R
KANSAS C DTWN  LGT RAIN  65  60  84 SW6       29.83R
LEE`S SUMMIT   CLOUDY    63  61  93 SW7       29.85R
ST JOSEPH      LGT RAIN  64  62  93 S6        29.82S
CHILLICOTHE      N/A     65  63  93 SW3       29.82F
KIRKSVILLE     CLOUDY    63  62  97 W6        29.82R FOG

$$
MOZ066>068-077>081-088>096-101>105-250800-
...SOUTHWEST MISSOURI...

CITY           SKY/WX    TMP DP  RH WIND       PRES   REMARKS
SPRINGFIELD    CLOUDY    63  61  93 SW12      29.90R
JOPLIN         CLOUDY    62  61  96 SW12      29.91R

$$
MOZ032>034-039>042-045>050-055>058-069>072-250800-
...CENTRAL MISSOURI...

CITY           SKY/WX    TMP DP  RH WIND       PRES   REMARKS
COLUMBIA       CLOUDY    64  63  96 S7        29.84R
JEFFERSON CITY CLOUDY    66  64  93 S5        29.83F
ROLLA          CLOUDY    66  64  93 S10       29.86S
SEDALIA        LGT RAIN  64  62  93 SW9       29.85S FOG
WHITEMAN AFB   LGT RAIN  63  63 100 S6        29.83S
WARRENSBURG    RAIN      63  61  94 SW3       29.85R
OSAGE BEACH    MOCLDY    64  63  94 S9        29.85F

$$
MOZ051-052-059>065-250800-
...EAST CENTRAL MISSOURI...

CITY           SKY/WX    TMP DP  RH WIND       PRES   REMARKS
ST LOUIS INTL  CLOUDY    71  65  81 S13G21    29.88S
SPIRIT OF STL  CLOUDY    69  66  90 S7        29.85F
ST CHARLES     CLOUDY    69  65  86 S16G24    29.86S

$$
MOZ072>076-082>087-097>100-106>115-250800-
...SOUTH CENTRAL AND SOUTHEAST MISSOURI...

CITY           SKY/WX    TMP DP  RH WIND       PRES   REMARKS
CAPE GIRARDEAU LGT RAIN  69  68  96 S13       29.97S
FARMINGTON     CLOUDY    66  64  94 S12G18    29.95F
POPLAR BLUFF   HVY RAIN  69  67  93 S10G22    29.95F FOG
WEST PLAINS    CLOUDY    67  64  90 S8        29.94F

$$


USA.gov is the U.S. government's official web portal to all federal, state and local government web resources and services.